Regional Weather Roundup
Issued by NWS Charleston, SC

Current Version | Previous Version | Text Only | Print | Product List | Glossary Off
Versions: 1 2 3 4 5 6 7 8 9 10 11 12 13 14 15 16 17 18 19 20 21 22 23 24 25 26 27 28 29 30 31 32 33 34 35 36 37 38 39 40 41 42 43 44 45 46 47 48 49 50

000
ASUS42 KCHS 260612
RWRCHS

Regional Weather Roundup
National Weather Service Charleston SC
200 AM EDT THU APR 26 2018

NOTE: "fair" indicates few or no clouds below 12,000 feet with no
significant weather and/or obstructions to visibility.

Not all stations are quality controlled. Use data with caution,
especially dewpoint observations.

SCZ027-030-031-034>040-042>050-260700-
...Southeast South Carolina...

CITY           SKY/WX    TMP DP  RH WIND       PRES   REMARKS
N Charleston   FAIR      63  55  75 SW7       29.84S
6HR MIN TEMP:  63; 6HR MAX TEMP:  74;

Waterfront Prk   N/A     66  57  72 W5        29.69F
Mount Pleasant FAIR      64  57  77 CALM      29.84S
Johns Island   FAIR      61  57  88 CALM      29.85S
Pinopolis        N/A     64  59  82 SW7       29.74F
Moncks Corner  FAIR      61  55  82 SW3       29.83F
Summerville    FAIR      57  55  94 CALM      29.85S
Beaufort MCAS  FAIR      62  56  80 W7        29.85F
6HR MIN TEMP:  60; 6HR MAX TEMP:  72;

Beaufort Arpt  FAIR      61  55  82 W5        29.86S
Hilton Head Is FAIR      63  55  77 VRB5      29.86F
Walterboro     FAIR      59  54  82 CALM      29.85F
Allendale      FAIR      59  55  88 CALM      29.85S

...Southern Midlands and Pee Dee...

CITY           SKY/WX    TMP DP  RH WIND       PRES   REMARKS
Georgetown     FAIR      57  55  94 CALM      29.83F
Kingstree      CLOUDY    59  59 100 CALM      29.82F
Orangeburg     FAIR      59  54  83 W3        29.84S
6HR MIN TEMP:  59; 6HR MAX TEMP:  71;

Barnwell       FAIR      59  54  82 CALM      29.85
Aiken          FAIR      54  54 100 W5        29.89S
Manning        FAIR      55  54  94 CALM      29.83S
Columbia       FAIR      65  54  67 N3        29.83F
6HR MIN TEMP:  62; 6HR MAX TEMP:  73;

Sumter         CLOUDY    65  56  73 CALM      29.81S
6HR MIN TEMP:  59; 6HR MAX TEMP:  70;

Florence       CLOUDY    62  58  86 CALM      29.82F
6HR MIN TEMP:  61; 6HR MAX TEMP:  72;

Myrtle Beach   FAIR      61  58  90 CALM      29.83F
N Myrtle Beach FAIR      60  59  96 CALM      29.81F
6HR MIN TEMP:  59; 6HR MAX TEMP:  71;


$$

GAZ063-065-086>088-099>101-113>116-118-119-134>141-150-260700-
...Southeast Georgia...

CITY           SKY/WX    TMP DP  RH WIND       PRES   REMARKS
Savannah Arpt  FAIR      59  54  83 W6        29.87F
6HR MIN TEMP:  59; 6HR MAX TEMP:  73;

Hunter AAF     FAIR      59  54  83 W6        29.84F
6HR MIN TEMP:  59; 6HR MAX TEMP:  73;

Fort Stewart   FAIR      58  53  84 W5        29.86F
6HR MIN TEMP:  58; 6HR MAX TEMP:  72;

Statesboro     FAIR      58  51  79 CALM      29.87F
Sylvania       FAIR      56  56  97 CALM      29.87F
Claxton        FAIR      56  55  97 CALM      29.88F

...CSRA, Central and far Southeast Georgia...

CITY           SKY/WX    TMP DP  RH WIND       PRES   REMARKS
Thomson        FAIR      56  52  86 N6        29.93S
Augusta-Bush   FAIR      59  53  80 W5        29.86S
6HR MIN TEMP:  58; 6HR MAX TEMP:  70;

Augusta-Daniel FAIR      61  52  72 W6        29.87S
Swainsboro     FAIR      54  54 100 NW3       29.89F
Vidalia        FAIR      61  52  72 W3        29.89S
Eastman        FAIR      61  49  65 NW3       29.93F
Hazlehurst     FAIR      60  53  79 CALM      29.89S
Alma           FAIR      56  53  90 CALM      29.89F
6HR MIN TEMP:  55; 6HR MAX TEMP:  73;

Waycross       FAIR      59  56  88 CALM      29.89F
Jesup          NOT AVBL
Baxley         FAIR      54  54 100 CALM      29.89F
Brunswick      FAIR      59  54  82 W3        29.89F
Saint Simons   FAIR      64  55  72 W3        29.88F
6HR MIN TEMP:  64; 6HR MAX TEMP:  76;


$$

SCZ027-028-034-036>038-045-046-048>050-GAZ119-141-260700-
...Lake and Supplemental Coastal Observations...

STATION/POSITION TIME  TEMP    WIND        PRES    WAVE   SWELL
                       AIR SEA DIR/SP/G            HT/PER HT/PER/DIR
                 (UTC) (F)     (DEG/KT/KT) (MB)    (FT/S) (FT/S/D)
Winyah Bay       0445   63     270/  1     1010.0
Lake Murray      0520   62     300/  2/  3 1010.2
ACE Basin NERRS  0445   63        CALM       N/A
Fort Pulaski     0542          270/  7/  9 1011.6F
Sapelo Island    0500   64     310/  1     1012.0

$$

ANZ835-935-AMZ111-154-330-350-352-354-370-450-454-472-260700-
...C-MAN and Buoy Observations...

STATION/POSITION TIME  TEMP    WIND        PRES    WAVE   SWELL
                       AIR SEA DIR/SP/G            HT/PER HT/PER/DIR
                 (UTC) (F)     (DEG/KT/KT) (MB)    (FT/S) (FT/S/D)
Buoy 41004       0550      69  260/ 12/ 14 1010.3F   4/ 9   3/110/ 9
Buoy 41008       0550   68 66  300/  8/ 10 1011.3F   3/ 8   3/ 80/ 8
Folly Beach CMAN 0500   64     260/  5/  6 1011.2F
Capers Nearshore 0508   67 66  280/  8/ 10 1011.1F
Fripp Nearshore  0508   67 66  290/  8/ 12 1010.8F


STATION/POSITION TIME  TEMP    WIND        PRES    WAVE   SWELL
                       AIR SEA DIR/SP/G            HT/PER HT/PER/DIR
                 (UTC) (F)     (DEG/KT/KT) (MB)    (FT/S) (FT/S/D)
5E St. Marys GA  0600      69                N/A     2/ 8
Frying Pan Buoy  0550   68 70  230/ 10/ 12 1009.7F   6/ 9   5/120/ 9
Buoy 41025       0550   66 70  280/ 16/ 19 1008.6R   7/ 9   7/120/ 9
Cape Lookout NC  0500          260/  7/  8 1009.7R
Buoy 41002       0550   72 73  250/ 14/ 19 1010.7F   7/ 9   5/100/ 9
Buoy 41010       0550   74 77  170/  8/ 12 1013.1F   6/ 9   5/ 80/ 9
St Augustine FL  0600   65 67  270/  7/  9 1012.5F


$$



USA.gov is the U.S. government's official web portal to all federal, state and local government web resources and services.